Time,TemperatureF,DewpointF,PressureIn,WindDirection,WindDirectionDegrees,WindSpeedMPH,WindSpeedGustMPH,Humidity,HourlyPrecipIn,Conditions,Clouds,dailyrainin,SoftwareType,DateUTC
2013-06-17 00:00:00,65.1,61.5,29.80,South,185,5.0,9.0,88,0.00,,,0.05,Wunderground v.1.15,2013-06-17 04:00:00,
2013-06-17 00:05:00,65.1,61.5,29.80,SW,221,6.0,9.0,88,0.00,,,0.05,Wunderground v.1.15,2013-06-17 04:05:00,
2013-06-17 00:10:00,65.2,61.2,29.80,SSW,211,6.0,9.0,87,0.00,,,0.05,Wunderground v.1.15,2013-06-17 04:10:00,
2013-06-17 00:15:00,65.3,61.3,29.80,SW,221,6.0,9.0,87,0.00,,,0.05,Wunderground v.1.15,2013-06-17 04:15:00,
2013-06-17 00:20:00,65.3,61.3,29.81,SW,217,5.0,5.0,87,0.00,,,0.05,Wunderground v.1.15,2013-06-17 04:20:00,
2013-06-17 00:25:00,65.4,61.4,29.81,SSW,213,5.0,9.0,87,0.00,,,0.05,Wunderground v.1.15,2013-06-17 04:25:00,
2013-06-17 00:30:00,65.4,61.4,29.81,SSW,201,4.0,9.0,87,0.00,,,0.05,Wunderground v.1.15,2013-06-17 04:30:00,
2013-06-17 00:35:00,65.4,61.4,29.80,SW,215,5.0,9.0,87,0.00,,,0.05,Wunderground v.1.15,2013-06-17 04:35:00,
2013-06-17 00:40:00,65.5,61.5,29.80,SSW,204,5.0,9.0,87,0.00,,,0.05,Wunderground v.1.15,2013-06-17 04:40:00,
2013-06-17 00:45:00,65.4,61.4,29.80,SSW,211,6.0,9.0,87,0.00,,,0.05,Wunderground v.1.15,2013-06-17 04:45:00,
2013-06-17 00:50:00,65.3,61.3,29.80,SW,227,6.0,9.0,87,0.00,,,0.05,Wunderground v.1.15,2013-06-17 04:50:00,
2013-06-17 00:55:00,65.3,61.7,29.80,WSW,250,5.0,9.0,88,0.00,,,0.05,Wunderground v.1.15,2013-06-17 04:55:00,
2013-06-17 01:00:00,65.3,61.3,29.80,SW,225,4.0,9.0,87,0.00,,,0.05,Wunderground v.1.15,2013-06-17 05:00:00,
2013-06-17 01:05:00,65.3,61.3,29.80,SW,225,4.0,9.0,87,0.00,,,0.05,Wunderground v.1.15,2013-06-17 05:05:00,
2013-06-17 01:10:00,65.5,61.5,29.79,WSW,241,5.0,5.0,87,0.00,,,0.05,Wunderground v.1.15,2013-06-17 05:10:00,
2013-06-17 01:15:00,65.6,61.6,29.79,SW,220,5.0,7.0,87,0.00,,,0.05,Wunderground v.1.15,2013-06-17 05:15:00,
2013-06-17 01:25:00,65.5,61.5,29.79,SW,236,4.0,9.0,87,0.00,,,0.05,Wunderground v.1.15,2013-06-17 05:25:00,
2013-06-17 01:30:00,65.4,61.4,29.79,WSW,239,4.0,4.0,87,0.00,,,0.05,Wunderground v.1.15,2013-06-17 05:30:00,
2013-06-17 01:35:00,65.3,61.3,29.79,SW,226,3.0,9.0,87,0.00,,,0.00,Wunderground v.1.15,2013-06-17 05:35:00,
2013-06-17 01:40:00,65.1,61.5,29.78,SSW,205,2.0,2.0,88,0.00,,,0.00,Wunderground v.1.15,2013-06-17 05:40:00,
2013-06-17 01:45:00,65.0,61.4,29.78,SSW,209,3.0,5.0,88,0.00,,,0.00,Wunderground v.1.15,2013-06-17 05:45:00,
2013-06-17 01:50:00,65.2,61.6,29.78,SSW,207,5.0,9.0,88,0.00,,,0.00,Wunderground v.1.15,2013-06-17 05:50:00,
2013-06-17 02:00:00,65.4,61.4,29.78,SW,219,6.0,10.0,87,0.00,,,0.00,Wunderground v.1.15,2013-06-17 06:00:00,
2013-06-17 02:10:00,65.4,61.4,29.78,SW,225,6.0,6.0,87,0.00,,,0.00,Wunderground v.1.15,2013-06-17 06:10:00,
2013-06-17 02:15:00,65.4,61.4,29.78,SW,228,6.0,7.0,87,0.00,,,0.00,Wunderground v.1.15,2013-06-17 06:15:00,
2013-06-17 02:20:00,65.3,61.3,29.78,SW,215,6.0,6.0,87,0.00,,,0.00,Wunderground v.1.15,2013-06-17 06:20:00,
2013-06-17 02:25:00,65.1,61.5,29.78,SW,223,5.0,9.0,88,0.00,,,0.00,Wunderground v.1.15,2013-06-17 06:25:00,
2013-06-17 02:35:00,65.2,61.6,29.78,SSW,209,6.0,9.0,88,0.00,,,0.00,Wunderground v.1.15,2013-06-17 06:35:00,
2013-06-17 02:40:00,65.3,61.7,29.78,SW,226,6.0,6.0,88,0.00,,,0.00,Wunderground v.1.15,2013-06-17 06:40:00,
2013-06-17 02:45:00,65.4,61.4,29.78,WSW,239,6.0,9.0,87,0.00,,,0.00,Wunderground v.1.15,2013-06-17 06:45:00,
2013-06-17 02:50:00,65.4,61.4,29.79,WNW,284,5.0,5.0,87,0.00,,,0.00,Wunderground v.1.15,2013-06-17 06:50:00,
2013-06-17 02:55:00,64.5,60.2,29.80,NNW,340,3.0,9.0,86,0.00,,,0.00,Wunderground v.1.15,2013-06-17 06:55:00,
2013-06-17 03:00:00,63.4,60.1,29.80,NW,305,1.0,9.0,89,0.00,,,0.00,Wunderground v.1.15,2013-06-17 07:00:00,
2013-06-17 03:10:00,63.4,61.0,29.80,SW,223,3.0,9.0,92,0.00,,,0.00,Wunderground v.1.15,2013-06-17 07:10:00,
2013-06-17 03:20:00,63.7,61.0,29.80,SW,229,5.0,5.0,91,0.00,,,0.00,Wunderground v.1.15,2013-06-17 07:20:00,
2013-06-17 03:25:00,63.6,60.6,29.80,SW,229,2.0,9.0,90,0.00,,,0.00,Wunderground v.1.15,2013-06-17 07:25:00,
2013-06-17 03:30:00,63.1,60.1,29.80,SW,229,0.0,9.0,90,0.00,,,0.00,Wunderground v.1.15,2013-06-17 07:30:00,
2013-06-17 03:35:00,62.7,60.3,29.80,SW,229,0.0,9.0,92,0.00,,,0.00,Wunderground v.1.15,2013-06-17 07:35:00,
2013-06-17 03:40:00,62.7,60.6,29.80,SW,229,0.0,9.0,93,0.00,,,0.00,Wunderground v.1.15,2013-06-17 07:40:00,
2013-06-17 03:45:00,62.7,60.6,29.81,SW,229,0.0,9.0,93,0.00,,,0.00,Wunderground v.1.15,2013-06-17 07:45:00,
2013-06-17 03:55:00,62.0,59.6,29.81,SW,229,0.0,9.0,92,0.00,,,0.00,Wunderground v.1.15,2013-06-17 07:55:00,
2013-06-17 04:00:00,61.9,60.2,29.81,SW,229,0.0,9.0,94,0.00,,,0.00,Wunderground v.1.15,2013-06-17 08:00:00,
2013-06-17 04:05:00,61.7,60.0,29.81,SW,229,0.0,9.0,94,0.00,,,0.00,Wunderground v.1.15,2013-06-17 08:05:00,
2013-06-17 04:10:00,61.5,59.8,29.81,SW,229,0.0,9.0,94,0.00,,,0.00,Wunderground v.1.15,2013-06-17 08:10:00,
2013-06-17 04:15:00,61.4,60.0,29.80,SW,229,0.0,9.0,95,0.00,,,0.00,Wunderground v.1.15,2013-06-17 08:15:00,
2013-06-17 04:20:00,61.2,59.8,29.80,SW,229,0.0,9.0,95,0.00,,,0.00,Wunderground v.1.15,2013-06-17 08:20:00,
2013-06-17 04:25:00,61.1,59.7,29.80,SW,229,0.0,9.0,95,0.00,,,0.00,Wunderground v.1.15,2013-06-17 08:25:00,
2013-06-17 04:35:00,60.6,58.9,29.80,SW,229,0.0,9.0,94,0.00,,,0.00,Wunderground v.1.15,2013-06-17 08:35:00,
2013-06-17 04:40:00,60.4,59.0,29.80,SW,229,0.0,9.0,95,0.00,,,0.00,Wunderground v.1.15,2013-06-17 08:40:00,
2013-06-17 04:45:00,60.2,58.8,29.81,SW,229,0.0,9.0,95,0.00,,,0.00,Wunderground v.1.15,2013-06-17 08:45:00,
2013-06-17 04:50:00,60.1,58.7,29.81,SW,229,0.0,9.0,95,0.00,,,0.00,Wunderground v.1.15,2013-06-17 08:50:00,
2013-06-17 04:55:00,60.0,58.9,29.81,SW,229,0.0,9.0,96,0.00,,,0.00,Wunderground v.1.15,2013-06-17 08:55:00,
2013-06-17 05:00:00,59.9,58.8,29.81,SW,229,0.0,9.0,96,0.00,,,0.00,Wunderground v.1.15,2013-06-17 09:00:00,
2013-06-17 05:10:00,59.8,58.7,29.81,SW,229,0.0,9.0,96,0.00,,,0.00,Wunderground v.1.15,2013-06-17 09:10:00,
2013-06-17 05:15:00,59.9,59.0,29.81,SW,229,1.0,9.0,97,0.00,,,0.00,Wunderground v.1.15,2013-06-17 09:15:00,
2013-06-17 05:20:00,60.2,59.6,29.81,SW,229,2.0,9.0,98,0.00,,,0.00,Wunderground v.1.15,2013-06-17 09:20:00,
2013-06-17 05:25:00,60.5,59.9,29.81,SW,229,1.0,9.0,98,0.00,,,0.00,Wunderground v.1.15,2013-06-17 09:25:00,
2013-06-17 05:30:00,60.8,60.2,29.81,SW,225,1.0,9.0,98,0.00,,,0.00,Wunderground v.1.15,2013-06-17 09:30:00,
2013-06-17 05:35:00,61.2,60.3,29.81,SW,225,2.0,9.0,97,0.00,,,0.00,Wunderground v.1.15,2013-06-17 09:35:00,
2013-06-17 05:40:00,61.4,60.5,29.81,SW,215,3.0,9.0,97,0.00,,,0.00,Wunderground v.1.15,2013-06-17 09:40:00,
2013-06-17 05:50:00,62.2,61.0,29.81,SSW,198,4.0,9.0,96,0.00,,,0.00,Wunderground v.1.15,2013-06-17 09:50:00,
2013-06-17 05:55:00,62.5,61.0,29.82,SSW,210,4.0,9.0,95,0.00,,,0.00,Wunderground v.1.15,2013-06-17 09:55:00,
2013-06-17 06:00:00,62.8,61.0,29.82,SSW,206,4.0,4.0,94,0.00,,,0.00,Wunderground v.1.15,2013-06-17 10:00:00,
2013-06-17 06:05:00,62.9,61.1,29.82,SSW,206,3.0,9.0,94,0.00,,,0.00,Wunderground v.1.15,2013-06-17 10:05:00,
2013-06-17 06:10:00,63.0,61.2,29.82,SSW,204,3.0,3.0,94,0.00,,,0.00,Wunderground v.1.15,2013-06-17 10:10:00,
2013-06-17 06:15:00,63.2,61.1,29.81,SW,232,4.0,4.0,93,0.00,,,0.00,Wunderground v.1.15,2013-06-17 10:15:00,
2013-06-17 06:20:00,63.4,61.3,29.81,SW,220,3.0,3.0,93,0.00,,,0.00,Wunderground v.1.15,2013-06-17 10:20:00,
2013-06-17 06:30:00,63.8,61.4,29.81,SSW,204,3.0,9.0,92,0.00,,,0.00,Wunderground v.1.15,2013-06-17 10:30:00,
2013-06-17 06:35:00,64.0,61.3,29.81,WSW,246,4.0,9.0,91,0.00,,,0.00,Wunderground v.1.15,2013-06-17 10:35:00,
2013-06-17 06:40:00,64.2,61.5,29.81,WSW,240,5.0,5.0,91,0.00,,,0.00,Wunderground v.1.15,2013-06-17 10:40:00,
2013-06-17 06:45:00,64.4,61.7,29.81,WSW,240,5.0,9.0,91,0.00,,,0.00,Wunderground v.1.15,2013-06-17 10:45:00,
2013-06-17 06:50:00,64.6,61.6,29.81,SW,236,5.0,5.0,90,0.00,,,0.00,Wunderground v.1.15,2013-06-17 10:50:00,
2013-06-17 06:55:00,64.8,61.8,29.81,SSW,208,4.0,9.0,90,0.00,,,0.00,Wunderground v.1.15,2013-06-17 10:55:00,
2013-06-17 07:05:00,65.2,61.9,29.82,SW,228,3.0,8.0,89,0.00,,,0.00,Wunderground v.1.15,2013-06-17 11:05:00,
2013-06-17 07:10:00,65.4,62.1,29.82,SW,215,4.0,9.0,89,0.00,,,0.00,Wunderground v.1.15,2013-06-17 11:10:00,
2013-06-17 07:15:00,65.5,61.9,29.82,WSW,253,5.0,9.0,88,0.00,,,0.00,Wunderground v.1.15,2013-06-17 11:15:00,
2013-06-17 07:20:00,65.6,61.9,29.82,SW,225,5.0,5.0,88,0.00,,,0.00,Wunderground v.1.15,2013-06-17 11:20:00,
2013-06-17 07:25:00,65.8,61.8,29.82,SW,228,5.0,9.0,87,0.00,,,0.00,Wunderground v.1.15,2013-06-17 11:25:00,
2013-06-17 07:30:00,65.9,61.9,29.82,SW,214,5.0,5.0,87,0.00,,,0.00,Wunderground v.1.15,2013-06-17 11:30:00,
2013-06-17 07:35:00,66.1,62.1,29.82,SW,221,4.0,9.0,87,0.00,,,0.00,Wunderground v.1.15,2013-06-17 11:35:00,
2013-06-17 07:45:00,66.4,62.4,29.82,SW,225,5.0,9.0,87,0.00,,,0.00,Wunderground v.1.15,2013-06-17 11:45:00,
2013-06-17 07:50:00,66.7,62.4,29.82,SW,217,4.0,9.0,86,0.00,,,0.00,Wunderground v.1.15,2013-06-17 11:50:00,
2013-06-17 07:55:00,67.1,62.4,29.83,SW,228,4.0,9.0,85,0.00,,,0.00,Wunderground v.1.15,2013-06-17 11:55:00,
2013-06-17 08:00:00,67.4,62.7,29.83,WSW,244,3.0,3.0,85,0.00,,,0.00,Wunderground v.1.15,2013-06-17 12:00:00,
2013-06-17 08:05:00,67.6,62.6,29.83,SW,233,4.0,11.0,84,0.00,,,0.00,Wunderground v.1.15,2013-06-17 12:05:00,
2013-06-17 08:10:00,67.9,62.9,29.83,West,271,5.0,5.0,84,0.00,,,0.00,Wunderground v.1.15,2013-06-17 12:10:00,
2013-06-17 08:15:00,68.1,62.4,29.83,WSW,243,5.0,6.0,82,0.00,,,0.00,Wunderground v.1.15,2013-06-17 12:15:00,
2013-06-17 08:20:00,68.4,62.7,29.83,WSW,242,5.0,9.0,82,0.00,,,0.00,Wunderground v.1.15,2013-06-17 12:20:00,
2013-06-17 08:30:00,68.6,62.5,29.83,WSW,247,6.0,9.0,81,0.00,,,0.00,Wunderground v.1.15,2013-06-17 12:30:00,
2013-06-17 08:35:00,68.8,62.7,29.83,SW,229,6.0,9.0,81,0.00,,,0.00,Wunderground v.1.15,2013-06-17 12:35:00,
2013-06-17 08:40:00,69.0,62.6,29.83,WSW,255,5.0,9.0,80,0.00,,,0.00,Wunderground v.1.15,2013-06-17 12:40:00,
2013-06-17 08:45:00,69.2,62.4,29.83,WSW,252,5.0,9.0,79,0.00,,,0.00,Wunderground v.1.15,2013-06-17 12:45:00,
2013-06-17 08:50:00,69.4,62.2,29.83,SW,217,5.0,9.0,78,0.00,,,0.00,Wunderground v.1.15,2013-06-17 12:50:00,
2013-06-17 08:55:00,69.7,62.2,29.83,WSW,250,5.0,9.0,77,0.00,,,0.00,Wunderground v.1.15,2013-06-17 12:55:00,
2013-06-17 09:05:00,70.2,62.6,29.82,SW,227,6.0,9.0,77,0.00,,,0.00,Wunderground v.1.15,2013-06-17 13:05:00,
2013-06-17 09:10:00,70.4,61.3,29.82,WNW,289,6.0,6.0,73,0.00,,,0.00,Wunderground v.1.15,2013-06-17 13:10:00,
2013-06-17 09:15:00,70.8,62.9,29.82,West,271,7.0,9.0,76,0.00,,,0.00,Wunderground v.1.15,2013-06-17 13:15:00,
2013-06-17 09:20:00,70.8,62.1,29.82,SW,219,7.0,7.0,74,0.00,,,0.00,Wunderground v.1.15,2013-06-17 13:20:00,
2013-06-17 09:25:00,71.3,62.6,29.82,West,269,5.0,9.0,74,0.00,,,0.00,Wunderground v.1.15,2013-06-17 13:25:00,
2013-06-17 09:30:00,71.5,62.8,29.82,SW,227,5.0,5.0,74,0.00,,,0.00,Wunderground v.1.15,2013-06-17 13:30:00,
2013-06-17 09:35:00,71.6,61.7,29.82,WSW,242,6.0,6.0,71,0.00,,,0.00,Wunderground v.1.15,2013-06-17 13:35:00,
2013-06-17 09:45:00,72.0,62.5,29.82,WSW,256,6.0,9.0,72,0.00,,,0.00,Wunderground v.1.15,2013-06-17 13:45:00,
2013-06-17 09:50:00,72.3,62.0,29.82,WSW,244,5.0,9.0,70,0.00,,,0.00,Wunderground v.1.15,2013-06-17 13:50:00,
2013-06-17 09:55:00,72.3,62.0,29.82,WSW,246,6.0,9.0,70,0.00,,,0.00,Wunderground v.1.15,2013-06-17 13:55:00,
2013-06-17 10:00:00,72.3,62.4,29.82,SW,236,6.0,6.0,71,0.00,,,0.00,Wunderground v.1.15,2013-06-17 14:00:00,
2013-06-17 10:05:00,72.4,62.1,29.81,SW,221,7.0,8.0,70,0.00,,,0.00,Wunderground v.1.15,2013-06-17 14:05:00,
2013-06-17 10:10:00,72.5,61.7,29.81,WSW,249,8.0,9.0,69,0.00,,,0.00,Wunderground v.1.15,2013-06-17 14:10:00,
2013-06-17 10:15:00,72.6,61.4,29.81,West,263,7.0,10.0,68,0.00,,,0.00,Wunderground v.1.15,2013-06-17 14:15:00,
2013-06-17 10:25:00,73.4,62.2,29.81,SW,225,6.0,9.0,68,0.00,,,0.00,Wunderground v.1.15,2013-06-17 14:25:00,
2013-06-17 10:30:00,73.5,61.9,29.81,West,262,6.0,6.0,67,0.00,,,0.00,Wunderground v.1.15,2013-06-17 14:30:00,
2013-06-17 10:35:00,73.8,62.6,29.81,WSW,249,6.0,9.0,68,0.00,,,0.00,Wunderground v.1.15,2013-06-17 14:35:00,
2013-06-17 10:40:00,73.9,61.4,29.81,SW,235,7.0,9.0,65,0.00,,,0.00,Wunderground v.1.15,2013-06-17 14:40:00,
2013-06-17 10:45:00,73.9,61.0,29.81,WSW,246,9.0,10.0,64,0.00,,,0.00,Wunderground v.1.15,2013-06-17 14:45:00,
2013-06-17 10:50:00,73.6,61.1,29.81,WSW,250,8.0,9.0,65,0.00,,,0.00,Wunderground v.1.15,2013-06-17 14:50:00,
2013-06-17 11:00:00,73.3,61.3,29.82,WSW,241,7.0,10.0,66,0.00,,,0.00,Wunderground v.1.15,2013-06-17 15:00:00,
2013-06-17 11:05:00,73.0,60.5,29.82,WSW,251,7.0,10.0,65,0.00,,,0.00,Wunderground v.1.15,2013-06-17 15:05:00,
2013-06-17 11:10:00,72.8,60.8,29.82,WSW,243,7.0,7.0,66,0.00,,,0.00,Wunderground v.1.15,2013-06-17 15:10:00,
2013-06-17 11:15:00,72.8,60.8,29.83,WSW,248,8.0,8.0,66,0.00,,,0.00,Wunderground v.1.15,2013-06-17 15:15:00,
2013-06-17 11:20:00,72.8,60.8,29.83,WSW,254,8.0,8.0,66,0.00,,,0.00,Wunderground v.1.15,2013-06-17 15:20:00,
2013-06-17 11:25:00,72.9,60.0,29.83,West,260,8.0,12.0,64,0.00,,,0.00,Wunderground v.1.15,2013-06-17 15:25:00,
2013-06-17 11:30:00,73.1,59.8,29.83,SW,231,9.0,9.0,63,0.00,,,0.00,Wunderground v.1.15,2013-06-17 15:30:00,
2013-06-17 11:40:00,74.0,59.7,29.83,West,262,9.0,9.0,61,0.00,,,0.00,Wunderground v.1.15,2013-06-17 15:40:00,
2013-06-17 11:45:00,74.4,59.1,29.83,West,277,9.0,13.0,59,0.00,,,0.00,Wunderground v.1.15,2013-06-17 15:45:00,
2013-06-17 11:50:00,74.8,58.5,29.83,West,281,9.0,11.0,57,0.00,,,0.00,Wunderground v.1.15,2013-06-17 15:50:00,
2013-06-17 11:55:00,75.2,59.4,29.83,West,269,9.0,11.0,58,0.00,,,0.00,Wunderground v.1.15,2013-06-17 15:55:00,
2013-06-17 12:00:00,75.5,58.7,29.83,West,267,9.0,9.0,56,0.00,,,0.00,Wunderground v.1.15,2013-06-17 16:00:00,
2013-06-17 12:05:00,75.6,58.8,29.83,West,271,9.0,9.0,56,0.00,,,0.00,Wunderground v.1.15,2013-06-17 16:05:00,
2013-06-17 12:10:00,76.0,59.7,29.83,West,275,8.0,9.0,57,0.00,,,0.00,Wunderground v.1.15,2013-06-17 16:10:00,
2013-06-17 12:20:00,75.7,58.4,29.83,SW,223,9.0,9.0,55,0.00,,,0.00,Wunderground v.1.15,2013-06-17 16:20:00,
2013-06-17 12:25:00,76.0,58.2,29.83,West,272,9.0,9.0,54,0.00,,,0.00,Wunderground v.1.15,2013-06-17 16:25:00,
2013-06-17 12:30:00,75.8,58.0,29.83,WNW,285,9.0,13.0,54,0.00,,,0.00,Wunderground v.1.15,2013-06-17 16:30:00,
2013-06-17 12:35:00,75.9,57.5,29.84,NW,306,11.0,13.0,53,0.00,,,0.00,Wunderground v.1.15,2013-06-17 16:35:00,
2013-06-17 12:40:00,76.0,57.6,29.84,West,259,11.0,11.0,53,0.00,,,0.00,Wunderground v.1.15,2013-06-17 16:40:00,
2013-06-17 12:45:00,75.9,58.1,29.84,West,269,11.0,11.0,54,0.00,,,0.00,Wunderground v.1.15,2013-06-17 16:45:00,
2013-06-17 12:55:00,75.8,58.5,29.84,WNW,298,11.0,11.0,55,0.00,,,0.00,Wunderground v.1.15,2013-06-17 16:55:00,
2013-06-17 13:00:00,75.5,57.2,29.84,West,278,12.0,12.0,53,0.00,,,0.00,Wunderground v.1.15,2013-06-17 17:00:00,
2013-06-17 13:05:00,75.8,58.5,29.84,WNW,295,11.0,13.0,55,0.00,,,0.00,Wunderground v.1.15,2013-06-17 17:05:00,
2013-06-17 13:10:00,75.7,57.9,29.84,WNW,302,10.0,10.0,54,0.00,,,0.00,Wunderground v.1.15,2013-06-17 17:10:00,
2013-06-17 13:15:00,75.5,56.6,29.84,West,280,11.0,11.0,52,0.00,,,0.00,Wunderground v.1.15,2013-06-17 17:15:00,
2013-06-17 13:20:00,75.6,57.8,29.84,West,272,12.0,12.0,54,0.00,,,0.00,Wunderground v.1.15,2013-06-17 17:20:00,
2013-06-17 13:30:00,75.8,58.0,29.84,West,281,9.0,9.0,54,0.00,,,0.00,Wunderground v.1.15,2013-06-17 17:30:00,
2013-06-17 13:35:00,75.5,58.2,29.84,West,278,8.0,9.0,55,0.00,,,0.00,Wunderground v.1.15,2013-06-17 17:35:00,
2013-06-17 13:40:00,74.8,56.0,29.84,WSW,258,9.0,11.0,52,0.00,,,0.00,Wunderground v.1.15,2013-06-17 17:40:00,
2013-06-17 13:45:00,74.9,58.1,29.84,WNW,302,9.0,11.0,56,0.00,,,0.00,Wunderground v.1.15,2013-06-17 17:45:00,
2013-06-17 13:50:00,74.9,55.6,29.84,West,269,10.0,14.0,51,0.00,,,0.00,Wunderground v.1.15,2013-06-17 17:50:00,
2013-06-17 13:55:00,75.1,57.8,29.84,WNW,292,12.0,14.0,55,0.00,,,0.00,Wunderground v.1.15,2013-06-17 17:55:00,
2013-06-17 14:00:00,75.5,57.2,29.84,West,262,12.0,12.0,53,0.00,,,0.00,Wunderground v.1.15,2013-06-17 18:00:00,
2013-06-17 14:10:00,76.1,56.1,29.84,SW,235,9.0,9.0,50,0.00,,,0.00,Wunderground v.1.15,2013-06-17 18:10:00,
2013-06-17 14:15:00,76.6,56.0,29.83,WNW,284,9.0,9.0,49,0.00,,,0.00,Wunderground v.1.15,2013-06-17 18:15:00,
2013-06-17 14:20:00,76.3,56.3,29.83,West,263,9.0,9.0,50,0.00,,,0.00,Wunderground v.1.15,2013-06-17 18:20:00,
2013-06-17 14:25:00,76.5,57.6,29.83,SW,221,9.0,9.0,52,0.00,,,0.00,Wunderground v.1.15,2013-06-17 18:25:00,
2013-06-17 14:30:00,76.4,56.9,29.83,West,259,10.0,13.0,51,0.00,,,0.00,Wunderground v.1.15,2013-06-17 18:30:00,
2013-06-17 14:35:00,76.7,57.7,29.83,WNW,293,11.0,13.0,52,0.00,,,0.00,Wunderground v.1.15,2013-06-17 18:35:00,
2013-06-17 14:45:00,76.4,58.0,29.83,West,263,10.0,14.0,53,0.00,,,0.00,Wunderground v.1.15,2013-06-17 18:45:00,
2013-06-17 14:50:00,76.7,57.2,29.83,WSW,247,11.0,11.0,51,0.00,,,0.00,Wunderground v.1.15,2013-06-17 18:50:00,
2013-06-17 14:55:00,76.5,58.6,29.83,WNW,285,11.0,16.0,54,0.00,,,0.00,Wunderground v.1.15,2013-06-17 18:55:00,
2013-06-17 15:00:00,76.7,57.7,29.83,West,270,11.0,11.0,52,0.00,,,0.00,Wunderground v.1.15,2013-06-17 19:00:00,
2013-06-17 15:05:00,76.8,57.8,29.83,West,260,10.0,11.0,52,0.00,,,0.00,Wunderground v.1.15,2013-06-17 19:05:00,
2013-06-17 15:10:00,75.9,59.6,29.83,West,276,8.0,8.0,57,0.00,,,0.00,Wunderground v.1.15,2013-06-17 19:10:00,
2013-06-17 15:15:00,76.7,57.7,29.83,West,259,10.0,12.0,52,0.00,,,0.00,Wunderground v.1.15,2013-06-17 19:15:00,
2013-06-17 15:20:00,76.5,58.6,29.83,West,270,11.0,11.0,54,0.00,,,0.00,Wunderground v.1.15,2013-06-17 19:20:00,
2013-06-17 15:30:00,76.5,58.6,29.83,West,275,10.0,10.0,54,0.00,,,0.00,Wunderground v.1.15,2013-06-17 19:30:00,
2013-06-17 15:35:00,76.0,59.7,29.83,WNW,291,11.0,11.0,57,0.00,,,0.00,Wunderground v.1.15,2013-06-17 19:35:00,
2013-06-17 15:40:00,75.8,59.0,29.83,West,278,11.0,11.0,56,0.00,,,0.00,Wunderground v.1.15,2013-06-17 19:40:00,
2013-06-17 15:45:00,76.0,58.7,29.82,West,281,11.0,11.0,55,0.00,,,0.00,Wunderground v.1.15,2013-06-17 19:45:00,
2013-06-17 15:50:00,76.0,59.7,29.83,West,276,10.0,10.0,57,0.00,,,0.00,Wunderground v.1.15,2013-06-17 19:50:00,
2013-06-17 15:55:00,76.3,59.9,29.83,West,259,9.0,10.0,57,0.00,,,0.00,Wunderground v.1.15,2013-06-17 19:55:00,
2013-06-17 16:00:00,76.4,61.0,29.83,West,279,9.0,11.0,59,0.00,,,0.00,Wunderground v.1.15,2013-06-17 20:00:00,
2013-06-17 16:10:00,76.7,60.3,29.82,West,276,10.0,10.0,57,0.00,,,0.00,Wunderground v.1.15,2013-06-17 20:10:00,
2013-06-17 16:15:00,77.1,59.7,29.82,West,280,10.0,10.0,55,0.00,,,0.00,Wunderground v.1.15,2013-06-17 20:15:00,
2013-06-17 16:20:00,76.9,59.0,29.82,West,281,10.0,10.0,54,0.00,,,0.00,Wunderground v.1.15,2013-06-17 20:20:00,
2013-06-17 16:30:00,77.1,58.6,29.82,West,270,11.0,13.0,53,0.00,,,0.00,Wunderground v.1.15,2013-06-17 20:30:00,
2013-06-17 16:35:00,76.7,59.3,29.82,WNW,288,11.0,14.0,55,0.00,,,0.00,Wunderground v.1.15,2013-06-17 20:35:00,
2013-06-17 16:40:00,75.8,59.5,29.83,WNW,286,10.0,10.0,57,0.00,,,0.00,Wunderground v.1.15,2013-06-17 20:40:00,
2013-06-17 16:45:00,74.9,58.6,29.82,West,267,10.0,10.0,57,0.00,,,0.00,Wunderground v.1.15,2013-06-17 20:45:00,
2013-06-17 16:50:00,74.9,58.6,29.83,WSW,256,9.0,12.0,57,0.00,,,0.00,Wunderground v.1.15,2013-06-17 20:50:00,
2013-06-17 16:55:00,74.9,58.6,29.83,West,277,9.0,12.0,57,0.00,,,0.00,Wunderground v.1.15,2013-06-17 20:55:00,
2013-06-17 17:00:00,74.8,58.5,29.83,West,269,10.0,10.0,57,0.00,,,0.00,Wunderground v.1.15,2013-06-17 21:00:00,
2013-06-17 17:05:00,74.5,58.8,29.83,WNW,294,9.0,10.0,58,0.00,,,0.00,Wunderground v.1.15,2013-06-17 21:05:00,
2013-06-17 17:15:00,74.3,59.5,29.83,West,274,7.0,9.0,60,0.00,,,0.00,Wunderground v.1.15,2013-06-17 21:15:00,
2013-06-17 17:20:00,74.2,60.8,29.83,NW,322,4.0,4.0,63,0.00,,,0.00,Wunderground v.1.15,2013-06-17 21:20:00,
2013-06-17 17:25:00,73.7,59.9,29.83,WNW,294,2.0,9.0,62,0.00,,,0.00,Wunderground v.1.15,2013-06-17 21:25:00,
2013-06-17 17:30:00,73.3,59.9,29.84,West,271,3.0,9.0,63,0.00,,,0.00,Wunderground v.1.15,2013-06-17 21:30:00,
2013-06-17 17:35:00,73.7,58.5,29.84,WNW,282,5.0,9.0,59,0.00,,,0.00,Wunderground v.1.15,2013-06-17 21:35:00,
2013-06-17 17:40:00,73.5,58.3,29.84,WNW,287,8.0,9.0,59,0.00,,,0.00,Wunderground v.1.15,2013-06-17 21:40:00,
2013-06-17 17:50:00,73.2,59.8,29.84,West,270,8.0,9.0,63,0.00,,,0.00,Wunderground v.1.15,2013-06-17 21:50:00,
2013-06-17 17:55:00,73.3,59.5,29.84,WSW,255,8.0,9.0,62,0.00,,,0.00,Wunderground v.1.15,2013-06-17 21:55:00,
2013-06-17 18:00:00,73.4,59.6,29.84,West,267,7.0,7.0,62,0.00,,,0.00,Wunderground v.1.15,2013-06-17 22:00:00,
2013-06-17 18:05:00,73.8,60.4,29.84,West,269,7.0,9.0,63,0.00,,,0.00,Wunderground v.1.15,2013-06-17 22:05:00,
2013-06-17 18:10:00,73.8,60.0,29.84,West,276,6.0,6.0,62,0.00,,,0.00,Wunderground v.1.15,2013-06-17 22:10:00,
2013-06-17 18:15:00,74.0,59.7,29.83,WNW,288,6.0,9.0,61,0.00,,,0.00,Wunderground v.1.15,2013-06-17 22:15:00,
2013-06-17 18:20:00,74.2,59.9,29.83,West,272,6.0,9.0,61,0.00,,,0.00,Wunderground v.1.15,2013-06-17 22:20:00,
2013-06-17 18:30:00,74.1,59.3,29.83,WNW,283,7.0,7.0,60,0.00,,,0.00,Wunderground v.1.15,2013-06-17 22:30:00,
2013-06-17 18:35:00,74.2,59.9,29.83,West,277,6.0,9.0,61,0.00,,,0.00,Wunderground v.1.15,2013-06-17 22:35:00,
2013-06-17 18:40:00,74.2,59.4,29.83,WNW,284,5.0,9.0,60,0.00,,,0.00,Wunderground v.1.15,2013-06-17 22:40:00,
2013-06-17 18:45:00,74.3,60.0,29.83,West,272,4.0,9.0,61,0.00,,,0.00,Wunderground v.1.15,2013-06-17 22:45:00,
2013-06-17 18:50:00,74.6,59.3,29.83,West,280,4.0,9.0,59,0.00,,,0.00,Wunderground v.1.15,2013-06-17 22:50:00,
2013-06-17 18:55:00,74.6,58.8,29.83,West,274,5.0,9.0,58,0.00,,,0.00,Wunderground v.1.15,2013-06-17 22:55:00,
2013-06-17 19:00:00,74.9,60.1,29.83,WSW,256,4.0,9.0,60,0.00,,,0.00,Wunderground v.1.15,2013-06-17 23:00:00,
2013-06-17 19:10:00,74.9,58.6,29.83,WNW,290,4.0,9.0,57,0.00,,,0.00,Wunderground v.1.15,2013-06-17 23:10:00,
2013-06-17 19:15:00,74.8,58.5,29.83,West,261,4.0,9.0,57,0.00,,,0.00,Wunderground v.1.15,2013-06-17 23:15:00,
2013-06-17 19:20:00,75.0,59.2,29.83,WSW,256,3.0,9.0,58,0.00,,,0.00,Wunderground v.1.15,2013-06-17 23:20:00,
2013-06-17 19:25:00,74.3,59.0,29.83,West,277,3.0,9.0,59,0.00,,,0.00,Wunderground v.1.15,2013-06-17 23:25:00,
2013-06-17 19:30:00,73.2,59.4,29.83,West,275,3.0,3.0,62,0.00,,,0.00,Wunderground v.1.15,2013-06-17 23:30:00,
2013-06-17 19:35:00,72.8,59.0,29.83,WNW,299,3.0,9.0,62,0.00,,,0.00,Wunderground v.1.15,2013-06-17 23:35:00,
2013-06-17 19:45:00,72.5,59.6,29.84,WNW,287,2.0,9.0,64,0.00,,,0.00,Wunderground v.1.15,2013-06-17 23:45:00,
2013-06-17 19:50:00,72.8,60.3,29.84,WNW,287,1.0,1.0,65,0.00,,,0.00,Wunderground v.1.15,2013-06-17 23:50:00,
2013-06-17 19:55:00,73.1,60.2,29.83,WNW,287,0.0,9.0,64,0.00,,,0.00,Wunderground v.1.15,2013-06-17 23:55:00,
2013-06-17 20:00:00,73.1,60.2,29.83,WNW,287,0.0,9.0,64,0.00,,,0.00,Wunderground v.1.15,2013-06-18 00:00:00,
2013-06-17 20:05:00,73.0,60.1,29.83,WNW,287,1.0,9.0,64,0.00,,,0.00,Wunderground v.1.15,2013-06-18 00:05:00,
2013-06-17 20:10:00,73.0,61.0,29.83,WNW,287,0.0,9.0,66,0.00,,,0.00,Wunderground v.1.15,2013-06-18 00:10:00,
2013-06-17 20:15:00,73.0,61.0,29.83,WNW,287,0.0,9.0,66,0.00,,,0.00,Wunderground v.1.15,2013-06-18 00:15:00,
2013-06-17 20:25:00,71.9,59.1,29.83,WNW,287,0.0,9.0,64,0.00,,,0.00,Wunderground v.1.15,2013-06-18 00:25:00,
2013-06-17 20:30:00,70.9,59.0,29.83,WNW,287,0.0,9.0,66,0.00,,,0.00,Wunderground v.1.15,2013-06-18 00:30:00,
2013-06-17 20:35:00,70.3,58.4,29.83,WNW,287,0.0,9.0,66,0.00,,,0.00,Wunderground v.1.15,2013-06-18 00:35:00,
2013-06-17 20:40:00,70.0,58.5,29.84,WNW,287,0.0,9.0,67,0.00,,,0.00,Wunderground v.1.15,2013-06-18 00:40:00,
2013-06-17 20:45:00,69.8,58.8,29.84,WNW,287,0.0,9.0,68,0.00,,,0.00,Wunderground v.1.15,2013-06-18 00:45:00,
2013-06-17 20:50:00,69.7,58.7,29.84,WNW,287,0.0,9.0,68,0.00,,,0.00,Wunderground v.1.15,2013-06-18 00:50:00,
2013-06-17 21:00:00,69.3,58.7,29.85,WNW,287,0.0,9.0,69,0.00,,,0.00,Wunderground v.1.15,2013-06-18 01:00:00,
2013-06-17 21:05:00,69.0,59.6,29.85,WNW,287,0.0,9.0,72,0.00,,,0.00,Wunderground v.1.15,2013-06-18 01:05:00,
2013-06-17 21:10:00,68.6,60.0,29.85,WNW,287,0.0,9.0,74,0.00,,,0.00,Wunderground v.1.15,2013-06-18 01:10:00,
2013-06-17 21:15:00,68.3,60.1,29.85,WNW,287,0.0,9.0,75,0.00,,,0.00,Wunderground v.1.15,2013-06-18 01:15:00,
2013-06-17 21:20:00,67.8,59.6,29.85,WNW,287,0.0,9.0,75,0.00,,,0.00,Wunderground v.1.15,2013-06-18 01:20:00,
2013-06-17 21:25:00,67.5,59.7,29.86,WNW,287,0.0,9.0,76,0.00,,,0.00,Wunderground v.1.15,2013-06-18 01:25:00,
2013-06-17 21:35:00,66.9,60.2,29.87,WNW,287,0.0,9.0,79,0.00,,,0.00,Wunderground v.1.15,2013-06-18 01:35:00,
2013-06-17 21:40:00,66.5,60.1,29.87,WNW,287,0.0,9.0,80,0.00,,,0.00,Wunderground v.1.15,2013-06-18 01:40:00,
2013-06-17 21:45:00,66.2,60.2,29.87,WNW,287,0.0,9.0,81,0.00,,,0.00,Wunderground v.1.15,2013-06-18 01:45:00,
2013-06-17 21:50:00,66.0,60.3,29.87,WNW,287,0.0,9.0,82,0.00,,,0.00,Wunderground v.1.15,2013-06-18 01:50:00,
2013-06-17 21:55:00,65.8,60.5,29.87,WNW,287,0.0,9.0,83,0.00,,,0.00,Wunderground v.1.15,2013-06-18 01:55:00,
2013-06-17 22:00:00,65.6,60.0,29.88,WNW,287,0.0,9.0,82,0.00,,,0.00,Wunderground v.1.15,2013-06-18 02:00:00,
2013-06-17 22:05:00,65.2,59.9,29.88,WNW,287,0.0,9.0,83,0.00,,,0.00,Wunderground v.1.15,2013-06-18 02:05:00,
2013-06-17 22:15:00,64.8,60.2,29.88,WNW,287,0.0,9.0,85,0.00,,,0.00,Wunderground v.1.15,2013-06-18 02:15:00,
2013-06-17 22:20:00,64.4,60.1,29.88,WNW,287,0.0,9.0,86,0.00,,,0.00,Wunderground v.1.15,2013-06-18 02:20:00,
2013-06-17 22:25:00,64.2,60.2,29.88,WNW,287,0.0,9.0,87,0.00,,,0.00,Wunderground v.1.15,2013-06-18 02:25:00,
2013-06-17 22:30:00,64.0,60.1,29.88,WNW,287,0.0,9.0,87,0.00,,,0.00,Wunderground v.1.15,2013-06-18 02:30:00,
2013-06-17 22:35:00,63.7,59.8,29.88,WNW,287,0.0,9.0,87,0.00,,,0.00,Wunderground v.1.15,2013-06-18 02:35:00,